#timestamp,LO_Frequency,Hit,StdDev 
1706270415.1,286047000.3,P
1706270435.9,286047002.6,P
1706270455.7,286047001.1,N
1706270475.5,286047000.5,N
1706270495.4,286047000.5,N
1706270515.2,286047002.8,N
1706270535.0,286047001.7,N
1706270535.9,286047001.7,N
1706270555.8,286047004.0,Y
1706270575.6,286046998.9,P
1706270595.5,286046998.7,N
1706270615.3,286046998.8,N
1706270635.2,286046999.0,N
1706270655.9,286046998.9,N
1706270675.7,286046997.2,Y
1706270695.6,286046996.6,P
1706270715.4,286046999.2,N
1706270735.2,286046997.4,N
1706270755.1,286046997.5,N
1706270756.0,286046997.5,N
1706270775.8,286046997.4,N
1706270795.7,286046996.7,Y
1706270815.5,286046998.7,P
1706270835.3,286046999.5,N
1706270855.2,286046996.5,P
1706270875.0,286046998.1,N
1706270875.9,286046998.1,N
1706270895.8,286046998.2,N
1706270915.6,286047000.5,N
1706270935.4,286047000.8,N
1706270955.3,286047000.9,N
1706270975.1,286047000.5,N
1706270995.8,286047000.0,N
1706271015.7,286047000.2,N
1706271035.5,286047001.8,N
1706271055.4,286047000.1,N
1706271075.2,286047003.9,N
1706271095.0,286047001.8,N
1706271095.9,286047001.8,N
1706271115.8,286047002.3,N
1706271135.6,286047001.6,N
1706271155.5,286047004.3,N
1706271175.3,286047002.5,N
1706271195.1,286047000.5,N
1706271215.9,286047001.0,N
1706271235.7,286047002.4,N
1706271255.5,286047001.9,N
1706271275.4,286047002.0,N
1706271295.2,286047002.4,N
1706271315.1,286047001.4,N
1706271316.0,286047001.4,N
1706271335.8,286047000.0,N
1706271355.6,286046999.9,N
1706271375.5,286047000.6,N
1706271395.3,286047002.4,N
1706271415.1,286047001.7,N
1706271435.9,286047002.6,N
1706271455.7,286047002.2,N
1706271475.2,286047001.6,N
1706271495.0,286047004.2,Y
1706271495.9,286047004.2,P
1706271515.8,286047002.8,N
1706271535.6,286047000.6,N
1706271555.4,286046998.9,N
1706271575.3,286047000.8,N
1706271595.1,286047002.8,N
1706271615.9,286047001.5,N
1706271635.7,286047000.0,N
1706271655.5,286047002.0,N
1706271675.4,286047002.5,N
1706271695.2,286047000.3,N
1706271715.0,286047002.2,N
1706271716.0,286047002.2,N
1706271735.8,286047000.0,N
1706271755.6,286047001.9,N
1706271775.5,286047001.9,N
1706271795.3,286047001.0,N
1706271815.1,286047001.2,N
1706271835.9,286047002.4,N
1706271855.7,286047002.0,N
1706271875.6,286047002.0,N
1706271895.4,286047000.1,N
1706271915.3,286047000.6,N
1706271935.1,286047000.8,N
1706271936.0,286047000.8,N
1706271955.8,286046998.1,N
1706271975.7,286046998.1,N
1706271995.5,286047001.0,N
1706272015.3,286047000.3,N
1706272035.2,286047000.0,N
1706272055.0,286047000.1,N
1706272055.9,286047000.1,N
1706272075.8,286047000.9,N
1706272095.6,286047000.4,N
1706272115.4,286047000.2,N
1706272135.3,286047002.1,N
1706272155.1,286047004.3,Y
1706272175.9,286047000.0,P
1706272195.7,286046999.9,N
1706272215.5,286047000.9,N
1706272235.4,286047000.4,N
1706272255.2,286047002.5,Y
1706272275.1,286047002.4,P
1706272276.0,286047002.4,N
1706272295.8,286046998.7,N
1706272315.6,286047000.2,N
1706272335.5,286046999.9,N
1706272355.3,286046999.7,N
1706272375.1,286047000.5,N
1706272395.9,286047002.6,N
1706272415.7,286047004.2,Y
1706272435.6,286047002.7,P
1706272455.4,286046998.3,N
1706272475.2,286046999.4,N
1706272495.1,286046999.4,N
1706272496.0,286046999.4,N
1706272515.8,286046996.5,N
1706272535.7,286046998.5,N
1706272555.5,286046996.7,N
1706272575.3,286046999.6,N
1706272595.2,286046998.9,N
1706272615.9,286046998.3,N
1706272635.3,286046996.9,N
1706272655.1,286046999.5,N
1706272656.0,286046999.5,N
1706272675.8,286047001.1,N
1706272695.7,286046999.3,N
1706272715.5,286047000.8,N
1706272735.3,286046998.2,N
1706272755.2,286046999.0,N
1706272775.0,286046998.2,N
1706272775.9,286046998.2,N
1706272795.8,286046998.5,N
1706272815.6,286046998.1,N
1706272835.4,286046999.3,N
1706272855.3,286046998.7,N
1706272875.1,286046999.5,N
1706272895.8,286046998.4,N
1706272915.7,286047000.9,N
1706272935.5,286047000.3,N
1706272955.4,286046998.9,N
1706272975.2,286047001.2,N
1706272995.0,286046999.9,N
1706272995.9,286046999.9,N
1706273015.8,286046998.4,N
1706273035.6,286046996.6,N
1706273055.4,286046998.4,N
1706273075.3,286046999.2,N
1706273095.1,286046996.7,N
1706273115.9,286046996.6,N
1706273135.7,286046998.9,N
1706273155.5,286046999.3,N
1706273175.4,286046996.7,N
1706273195.2,286046996.5,N
1706273215.0,286046997.1,N
1706273216.0,286046997.1,N
1706273235.8,286046997.8,N
1706273255.6,286046999.6,N
1706273275.5,286046997.5,N
1706273295.3,286046997.8,N
1706273315.1,286046997.4,N
1706273335.9,286046997.0,N
1706273355.7,286046999.2,N
1706273375.6,286046997.2,N
1706273395.4,286046997.5,N
1706273415.2,286046994.9,Y
1706273435.1,286046999.3,P
1706273436.0,286046999.3,N
1706273455.8,286046998.8,N
1706273475.7,286047001.0,N
1706273495.5,286046996.7,Y
1706273515.3,286046998.3,P
1706273535.2,286046996.5,P
1706273555.0,286046999.2,N
1706273555.9,286046999.2,N
1706273575.8,286046998.4,N
1706273595.6,286046998.1,N
1706273615.4,286047001.2,N
1706273635.3,286046998.3,N
1706273655.1,286046999.2,N
1706273675.9,286046996.5,Y
1706273695.7,286047000.5,P
1706273715.5,286047002.5,N
1706273735.4,286047002.7,N
1706273755.2,286047002.7,N
1706273775.1,286047002.7,N
1706273776.0,286047002.7,N
1706273795.8,286047001.7,N
1706273815.6,286047001.3,N
1706273835.5,286047002.9,N
1706273855.3,286047003.2,N
1706273875.1,286047004.3,Y
1706273895.9,286047002.2,P
1706273915.7,286047000.3,N
1706273935.6,286047000.9,N
1706273955.4,286047001.0,N
1706273975.2,286047002.3,Y
1706273995.1,286047000.8,P
1706273996.0,286047000.8,P
